Regional Weather Roundup
Issued by NWS Upton, NY

Current Version | Previous Version | Text Only | Print | Product List | Glossary On
Versions: 1 2 3 4 5 6 7 8 9 10 11 12 13 14 15 16 17 18 19 20 21 22 23 24 25 26 27 28 29 30 31 32 33 34 35 36 37 38 39 40 41 42 43 44 45 46 47 48 49
000
ASUS41 KOKX 031004
RWROKX

REGIONAL WEATHER ROUNDUP
NATIONAL WEATHER SERVICE NEW YORK NY
600 AM EDT MON AUG 03 2015

NOTE: "FAIR" INDICATES FEW OR NO CLOUDS BELOW 12,000 FEET WITH NO
SIGNIFICANT WEATHER AND/OR OBSTRUCTIONS TO VISIBILITY.

NYZ071-072-176-178-NJZ106-104-031100-
NEW YORK CITY METRO AREA


CITY           SKY/WX    TMP DP  RH WIND       PRES   REMARKS
CENTRAL PARK   PTCLDY    75  60  59 VRB3      29.87S
LAGUARDIA APRT PTCLDY    76  60  57 SW9       29.84S
KENNEDY INTL   PTCLDY    72  63  73 SW5       29.86S
NEWARK/LIBERTY PTCLDY    71  62  73 SW6       29.84F
BRNX BOT. GARD   N/A     75  61  60 SW2       29.87S
TETERBORO      MOCLDY    72  61  68 S5        29.83S
$$

NYZ177-179-078>081-031100-
LONG ISLAND NEW YORK

CITY           SKY/WX    TMP DP  RH WIND       PRES   REMARKS
FARMINGDALE    CLEAR     72  63  73 SW3       29.86R
ISLIP          PTCLDY    71  64  78 SW5       29.84S
SHIRLEY        CLEAR     67  65  93 S5        29.87R
WESTHAMPTON    CLEAR     71  69  93 S6        29.89R
MONTAUK POINT    N/A     74  70  87 SW6       29.88R
$$

NYZ052-065-067-031100-
HUDSON VALLEY

CITY           SKY/WX    TMP DP  RH WIND       PRES   REMARKS
WHITE PLAINS   CLEAR     72  60  66 VRB3      29.85S
NEWBURGH       CLEAR     72  61  68 SW7       29.83F
MONTGOMERY     CLEAR     62  59  90 SW5       29.83S
POUGHKEEPSIE   CLEAR     63  58  83 CALM      29.81S
ALBANY         PTCLDY    70  57  63 S8        29.78R
$$

NJZ001-105-106-008-010-013-015-019>022-104-031100-
NEW JERSEY

CITY           SKY/WX    TMP DP  RH WIND       PRES   REMARKS
NEWARK/LIBERTY PTCLDY    71  62  73 SW6       29.84F
TETERBORO      MOCLDY    72  61  68 S5        29.83S
CALDWELL       PTCLDY    68  59  73 CALM      29.85S
MORRISTOWN     PTCLDY    61  57  88 CALM      29.85S
SOMERVILLE     CLEAR     60  57  89 CALM      29.83F
SUSSEX         CLEAR     60  57  89 CALM      29.84S
ANDOVER          N/A     63  61  93 SW3       29.85S
TRENTON        CLEAR     67  62  84 CALM      29.85F
MILLVILLE      CLEAR     62  61  96 CALM      29.87S FOG
ATLANTIC CITY  CLEAR     66  64  93 NW3       29.87S
WRIGHTSTOWN    NOT AVBL
TOMS RIVER       N/A     66  64  94 CALM      29.87S
BELMAR         CLEAR     66  59  77 CALM      29.87S
$$

PAZ047>061-062-071-031100-
EASTERN PENNSYLVANIA

CITY           SKY/WX    TMP DP  RH WIND       PRES   REMARKS
PHILADELPHIA   CLEAR     73  65  75 SW3       29.86S
ALLENTOWN      CLEAR     62  59  90 CALM      29.84F
SCRANTON       PTCLDY    66  59  78 E3        29.83R
$$

CTZ002-004>006-009-010-012-RIZ004-006-007-MAZ004-011-015-031100-
SOUTHERN NEW ENGLAND
 IN CT

CITY           SKY/WX    TMP DP  RH WIND       PRES   REMARKS
BRADLEY INTL   PTCLDY    66  64  93 CALM      29.83R
HARTFORD       CLEAR     69  67  93 S6        29.83R
DANBURY        CLEAR     71  58  63 S8        29.86S
WTRBRY/OXFORD  CLEAR     68  59  73 SW5       29.88S
BRIDGEPORT     CLEAR     74  66  76 SW6       29.84S
MERIDEN        PTCLDY    65  62  90 CALM      29.84S
NEW HAVEN      PTCLDY    72  67  84 SW6       29.85S
CHESTER        FAIR      70  66  88 SW5       29.88R
GROTON         PTCLDY    71  69  93 SW8       29.86R FOG
WILLIMANTIC    FOG       63  61  93 CALM      29.86S VSB 1/4

 IN RI

CITY           SKY/WX    TMP DP  RH WIND       PRES   REMARKS
PROVIDENCE     PTCLDY    68  67  96 CALM      29.87R
BLOCK ISLAND     N/A     72  72 100 SW10      29.89R
WESTERLY       PTCLDY    71  68  90 SW5       29.88R

 IN MA

CITY           SKY/WX    TMP DP  RH WIND       PRES   REMARKS
BOSTON         PTCLDY    68  68 100 S9        29.85R
WORCESTER      CLEAR     65  62  90 SW9       29.87S
WESTFIELD      PTCLDY    62  60  93 CALM      29.84R FOG
PROVINCETOWN   PTCLDY    72  64  78 S9        29.88S
NANTUCKET      MOCLDY    70  68  93 E3        29.89F FOG
$$

ANZ330-335-338-340-345-350-353-355-031100-
COASTAL MARINE OBSERVATIONS


STATION/POSITION TIME  SKY/WX   TEMP    WIND        PRES    VSBY  WAVE
                                AIR SEA DIR/SP/G                  HT/PER
                 (UTC)          (F)     (DEG/KT/KT) (MB)    (MI)  (FT/S)
NY HARB ENTRANCE 0850            74 72  230/ 10/ 12 1010.6          3/ 8
4S FIRE IS       NOT AVBL
20S FIRE ISLAND  0850            76 76  220/ 10/ 12 1011.0          3/ 7
GREAT SOUTH BAY  0900            77 80  240/ 12/ 16   N/A
23SW MTP         0950            76 75  220/ 10/ 12 1011.2          3/ 8
HUDSON CANYON    NOT AVBL
KINGS POINT      0900            74 70  190/  6/  7 1009.8
EXECUTION ROCKS  0900            73     190/  4/  6   N/A
CENTRAL LI SOUND NOT AVBL
EASTERN LI SOUND 0900            72 67  220/  8/ 10   N/A
ROBBINS REEF     0900            74     260/ 12/ 14 1009.5
$$


>>>>>>>>>>>>>>>>>>>>>>>>>>>> KEY <<<<<<<<<<<<<<<<<<<<<<<<<<<
>                                                          <
>     SKY/WX - SKY CONDITION/PRESENT WEATHER               <
>     TMP    - TEMPERATURE IN FAHRENHEIT                   <
>     DP     - DEWPOINT IN FAHRENHEIT                      <
>     RH     - RELATIVE HUMIDITY IN PERCENT                <
>     WIND   - DIRECTION AND SPEED IN MPH                  <
>     PRES   - MEAN SEA LEVEL PRESSURE IN INCHES OF HG     <
>     WCI    - WIND CHILL INDEX                            <
>     VSB    - VISIBILITY IN MILES                         <
>     HX     - HEAT INDEX                                  <
>     TC     - TEMPERATURE IN CELSIUS                      <
>     VRB    - VARIABLE WIND DIRECTION                     <
>                                                          <
>>>>>>>>>>>>>>>>>>>>>>>>>>>> KEY <<<<<<<<<<<<<<<<<<<<<<<<<<<





USA.gov is the U.S. government's official web portal to all federal, state and local government web resources and services.